Regional Weather Roundup
Issued by NWS Cleveland, OH

Home | Current Version | Previous Version | Graphics & Text | Print | Product List | Glossary On
Versions: 1 2 3 4 5 6 7 8 9 10 11 12 13 14 15 16 17 18 19 20 21 22 23 24 25 26 27 28 29 30 31 32 33 34 35 36 37 38 39 40 41 42 43 44 45 46 47 48 49 50
000
ASUS41 KCLE 261102
RWRCLE
OHIO REGIONAL WEATHER ROUNDUP
NATIONAL WEATHER SERVICE CLEVELAND, OH
600 AM EST FRI DEC 26 2014

NOTE: "FAIR" INDICATES FEW OR NO CLOUDS BELOW 12,000 FEET WITH NO
SIGNIFICANT WEATHER AND/OR OBSTRUCTIONS TO VISIBILITY.

OHZ001>008-015>018-024>027-034-035-043-044-261200-
   NORTHWEST OHIO

CITY           SKY/WX    TMP DP  RH WIND       PRES   REMARKS
DEFIANCE       CLEAR     34  30  85 S9        30.14S WCI  27
FINDLAY        CLEAR     34  30  85 S12       30.16S WCI  25
TOLEDO EXPRESS CLEAR     31  29  92 S7        30.14S WCI  24
TOLEDO EXEC    CLEAR     31  27  85 S9        30.16S WCI  23
LIMA           CLEAR     34  29  82 S10       30.16F WCI  26
$$

OHZ009>014-019>023-028>033-038-089-261200-
   NORTHEAST OHIO

CITY           SKY/WX    TMP DP  RH WIND       PRES   REMARKS
CLE-HOPKINS    CLEAR     34  29  82 S13       30.23S WCI  25
CLE-LAKEFRONT  CLEAR     36  29  75 S10       30.21S
CUY CO. ARPT   NOT AVBL
LORAIN-ELYRIA  CLEAR     31  28  89 S10       30.20F WCI  22
ASHTABULA      CLEAR     32  27  81 S7        30.23R WCI  26
AKRON-CANTON   CLEAR     31  26  82 S7        30.22S WCI  24
WOOSTER        CLEAR     31  28  89 S5        30.22S WCI  26
MANSFIELD      CLEAR     31  29  92 S9        30.19F WCI  23
YOUNGSTOWN     PTCLDY    33  27  78 S6        30.23R WCI  28
$$

OHZ042-051>053-060>062-070>072-077>081-261200-
  SOUTHWEST OHIO

CITY           SKY/WX    TMP DP  RH WIND       PRES   REMARKS
CINC-COVINGTON PTCLDY    31  25  78 S7        30.21S WCI  24
CINC-LUNKEN    FOG       22  22 100 CALM      30.25F VSB 1/4
HAMILTON       CLEAR     29  28  96 E6        30.23S WCI  23
DAYTON         CLEAR     32  29  88 S9        30.20S WCI  24
WRIGHT-PAT AFB CLEAR     30  28  94 SE7       30.22R WCI  23
DAYTON GENERAL CLEAR     32  29  88 S9        30.20S WCI  24
WILMINGTON     CLEAR     31  27  85 S6        30.21S WCI  25
$$

OHZ036-037-039>041-045>050-054>059-063>069-073>076-082>088-261200-
  CENTRAL AND SOUTHEAST OHIO

CITY           SKY/WX    TMP DP  RH WIND       PRES   REMARKS
COLUMBUS       CLEAR     29  26  89 S3        30.24R
OSU AIRPORT    CLEAR     30  27  88 S5        30.23R WCI  25
BOLTON FIELD   NOT AVBL
RICKENBACK AFB NOT AVBL
NEWARK         CLEAR     27  25  92 CALM      30.24R
MARION         CLEAR     30  27  88 S9        30.20F WCI  22
LANCASTER      CLEAR     28  25  88 CALM      30.24R
ZANESVILLE     CLEAR     27  24  89 CALM      30.24S
NEW PHILLY     CLEAR     29  26  89 SE6       30.25R WCI  23
$$


USA.gov is the U.S. government's official web portal to all federal, state and local government web resources and services.